Regional Weather Roundup
Issued by NWS

Home | Current Version | Previous Version | Graphics & Text | Print | Product List | Glossary On
Versions: 1 2 3 4 5 6 7 8 9 10 11 12 13 14 15 16 17 18 19 20 21 22 23 24 25 26 27 28 29 30 31 32 33 34 35 36 37 38 39 40 41 42 43 44 45 46 47 48 49 50
000
ASUS43 KMPX 060610
RWRMN
WEATHER ROUNDUP FOR MINNESOTA
NATIONAL WEATHER SERVICE TWIN CITIES/CHANHASSEN MN
100 AM CDT WED MAY 06 2015


NOTE: "FAIR" INDICATES FEW OR NO CLOUDS BELOW 12,000 FEET WITH NO
SIGNIFICANT WEATHER AND/OR OBSTRUCTIONS TO VISIBILITY. N/A MEANS
CURRENT SKY AND/OR WEATHER CONDITIONS ARE NOT AVAILABLE.

MNZ060>063-068>070-060700-
   Twin Cities Metro

CITY           SKY/WX    TMP DP  RH WIND       PRES   REMARKS
TWIN CITIES    CLOUDY    56  53  90 SE14      30.12F
6HR MIN TEMP:  56; 6HR MAX TEMP:  64; 6HR PCP:  0.02;

ST PAUL        CLOUDY    56  54  93 SE8       30.14S
CRYSTAL        CLOUDY    58  53  84 SE14      30.11F
BLAINE         CLOUDY    57  55  94 SE9       30.12F
LAKEVILLE      CLOUDY    54  52  94 SE8       30.12F
EDEN PRAIRIE   CLOUDY    56  53  90 SE10      30.10F
6HR MIN TEMP:  56; 6HR MAX TEMP:  63; 6HR PCP:  0.03;

SOUTH ST PAUL  CLOUDY    56  53  89 SE9       30.13S
LAKE ELMO      CLOUDY    54  54 100 SE6       30.15S
$$
MNZ001>005-007-008-013>017-022>024-027-028-060700-
   Northwest Minnesota

CITY           SKY/WX    TMP DP  RH WIND       PRES   REMARKS
BEMIDJI        PTCLDY    59  40  48 SE7       30.05F
HALLOCK        CLEAR     61  39  44 SE12      29.96F
ROSEAU         CLEAR     63  37  39 S13       30.01S
WARROAD        PTCLDY    64  41  42 S12       30.03S
THIEF RVR FALL PTCLDY    55  39  54 SE8       30.02S
CROOKSTON      CLEAR     59  46  63 S9        30.00S
FOSSTON        PTCLDY    61  43  51 SE9       30.03S
DETROIT LAKES  MOCLDY    61  52  72 SE14      30.03F
MOORHEAD       MOCLDY    63  54  72 S17         N/A
PARK RAPIDS    CLOUDY    62  46  55 SE13      30.05F
MAHNOMEN       MOCLDY    61  51  70 SE9       30.01F
$$
MNZ006-009>011-018-025>026-060700-
   North Central Minnesota

CITY           SKY/WX    TMP DP  RH WIND       PRES   REMARKS
BAUDETTE       PTCLDY    53  33  46 SE7       30.06R
FLAG ISLAND    PTCLDY    59  43  55 SE6       30.02S
INTL FALLS     CLEAR     54  30  40 S8        30.10S
6HR MIN TEMP:  49; 6HR MAX TEMP:  72;

WASKISH        CLEAR     55  39  54 CALM      30.07S
BIG FORK       PTCLDY    54  28  37 SE6       30.11S
LONGVILLE      MOCLDY    61  39  44 SE12      30.09S
GRAND RAPIDS   PTCLDY    54  28  37 SE7       30.12S
CRANE LAKE     CLEAR     48  25  40 CALM      30.15S
ORR            CLEAR     52  21  30 SE3       30.11S
COOK           CLEAR     50  27  40 E3        30.14F
WALKER         FAIR      59  38  45 SE6       30.07S
$$
MNZ012-019>021-037-060700-
   Northeast Minnesota

CITY           SKY/WX    TMP DP  RH WIND       PRES   REMARKS
DULUTH         PTCLDY    49  27  42 E9        30.15F
6HR MIN TEMP:  48; 6HR MAX TEMP:  64;

ELY            CLEAR     46  27  46 SE6       30.16S
HIBBING        PTCLDY    45  25  45 SE6       30.13F
EVELETH        PTCLDY    43  28  56 NE3       30.15F
DULUTH HARBOR    N/A     43  37  81 NE7       30.18S
TWO HARBORS    PTCLDY    46  34  61 CALM      30.15F
SILVER BAY     CLEAR     39  28  65 N3        30.17S
GRAND MARAIS     N/A     46  30  53 N3        30.19S
G MARAIS ARPRT CLEAR     43  25  49 CALM      30.21S
$$
MNZ029>031-032-039>041-046>048-054>057-064-060700-
   West Central Minnesota

CITY           SKY/WX    TMP DP  RH WIND       PRES   REMARKS
FERGUS FALLS   CLOUDY    61  54  77 SE15G21   30.03S
WHEATON        CLOUDY    55  52  88 SE17      30.02F
MORRIS         CLOUDY    57  54  88 SE18      30.02F
ALEXANDRIA     CLOUDY    57  53  86 SE18      30.07S
ELBOW LAKE     CLOUDY    58  55  88 SE16      30.03F
WADENA         CLOUDY    61  50  67 SE16      30.04F
GLENWOOD       CLOUDY    55  54  94 E14       30.07F
APPLETON       MOCLDY    59  54  82 SE17      30.02F
BENSON         CLOUDY    57  52  82 SE12      30.04F
ORTONVILLE     CLOUDY    57  52  82 SE13      30.01F
MADISON        CLOUDY    57  52  82 SE16      30.02F
WILLMAR        CLOUDY    57  54  88 SE17      30.07F
$$
MNZ033>034-036-042>043-049>051-058-059-060700-
   Central Minnesota

CITY           SKY/WX    TMP DP  RH WIND       PRES   REMARKS
ST CLOUD       CLOUDY    57  52  83 SE13      30.09F
6HR MIN TEMP:  57; 6HR MAX TEMP:  67; 6HR PCP: TRACE;

SAUK CENTRE    CLOUDY    57  53  87 SE12G17   30.08S
PAYNESVILLE    CLOUDY    53  51  93 E12       30.09S
AITKIN         CLOUDY    63  37  39 SE9       30.09F
PINE RIVER     CLOUDY    61  43  51 SE10      30.11F
BRAINERD       CLOUDY    60  45  57 SE10G18   30.10S
STAPLES        CLOUDY    61  50  67 SE12G20   30.07S
LONG PRAIRIE   CLOUDY    55  52  88 SE14      30.08S
LITTLE FALLS   CLOUDY    57  50  77 SE12      30.09F
LITCHFIELD     CLOUDY    55  55 100 SE12      30.09F
BUFFALO        CLOUDY    56  51  86 SE10      30.12F
MAPLE LAKE     CLOUDY    57  55  91 SE8       30.11F
$$
MNZ037-044-045-052-053-060700-
   East Central Minnesota

CITY           SKY/WX    TMP DP  RH WIND       PRES   REMARKS
PRINCETON      CLOUDY    59  52  77 E8        30.12S
MORA           CLOUDY    55  41  58 SE5       30.14F
CAMBRIDGE      CLOUDY    61  48  63 E8        30.10F
RUSH CITY      CLOUDY    59  48  66 SE3       30.13F
MOOSE LAKE     CLOUDY    55  32  41 SE5       30.12F
HINCKLEY       CLOUDY    61  36  39 SE6       30.14S
CLOQUET        MOCLDY    46  30  53 E3        30.15S
MCGREGOR       CLOUDY    54  34  47 SE5       30.13S
$$
MNZ071>073-080-081-089-090-097-098-060700-
   Southwest Minnesota

CITY           SKY/WX    TMP DP  RH WIND       PRES   REMARKS
MONTEVIDEO     CLOUDY    57  54  88 S17       30.04F
GRANITE FALLS  CLOUDY    56  53  89 E14       30.05F
CANBY          CLOUDY    58  55  88 SE10G16   30.02F
MARSHALL       CLOUDY    57  52  82 SE16G23   30.03S
REDWOOD FALLS  CLOUDY    56  53  90 SE12      30.05F
OLIVIA         CLOUDY    54  50  87 SE13      30.05F
PIPESTONE      CLOUDY    57  55  94 SE12G20   30.01S VSB 1
WINDOM         CLOUDY    55  55 100 SE12G17   30.05S VSB 1/2
WORTHINGTON    CLOUDY    57  54  88 SE14      30.04F VSB 1/2
JACKSON        FOG       55  54  94 SE14G20   30.05F VSB 1/2
TRACY          CLOUDY    57  56  95 SE12      30.04S FOG
SLAYTON        FOG       55  55 100 SE18      30.04F VSB 1/2
$$
MNZ065>067-074>077-082>085-091>093-060700-
   South Central Minnesota

CITY           SKY/WX    TMP DP  RH WIND       PRES   REMARKS
MANKATO        CLOUDY    55  54  94 SE16      30.08F
NEW ULM        CLOUDY    55  54  94 SE10      30.07S FOG
ST JAMES       CLOUDY    55  55 100 SE12      30.08R FOG
FAIRMONT       CLOUDY    55  52  88 SE13      30.07S VSB 3/4
GLENCOE        CLOUDY    56  55  95 E10       30.09F
FARIBAULT      CLOUDY    54  54 100 SE12      30.11F FOG
OWATONNA       CLOUDY    54  52  94 SE14      30.11F FOG
WASECA         CLOUDY    54  52  94 E13       30.10F FOG
ALBERT LEA     FOG       55  54  94 SE13      30.10F VSB 1/2
$$
MNZ078>079-086>088-094>096-060700-
   Southeast Minnesota

CITY           SKY/WX    TMP DP  RH WIND       PRES   REMARKS
ROCHESTER      FOG       53  52  96 SE17      30.14F VSB 1/4
6HR MIN TEMP:  52; 6HR MAX TEMP:  53; 6HR PCP: TRACE;

RED WING       CLOUDY    55  54  94 SE10      30.13F
STANTON        CLOUDY    56  52  88 SE6       30.11F
DODGE CENTER   FOG       54  54 100 SE15      30.12F VSB 1/4
WINONA         CLOUDY    54  52  94 SE7       30.17S
AUSTIN         DRZL/FOG  54  52  94 SE10      30.12F VSB 1/4
PRESTON        FOG       52  52  98 SE6       30.16S VSB 1/2
$$
ABBREVIATIONS USED IN REMARKS
   TC - TEMPERATURES IN CELSIUS
  WCI - WIND CHILL INDEX
   HX - HEAT INDEX
  VSB - VISIBILITY
$$


USA.gov is the U.S. government's official web portal to all federal, state and local government web resources and services.